Regional Weather Roundup
Issued by NWS

Home | Current Version | Previous Version | Text Only | Print | Product List | Glossary On
Versions: 1 2 3 4 5 6 7 8 9 10 11 12 13 14 15 16 17 18 19 20 21 22 23 24 25 26 27 28 29 30 31 32 33 34 35 36 37 38 39 40 41 42 43 44 45 46 47 48 49 50
000
ASUS43 KOAX 160710
RWRNE

WEATHER ROUNDUP FOR NEBRASKA
NATIONAL WEATHER SERVICE OMAHA NE
200 AM CDT SUN MAY 16 2021

NOTES: SATELLITE DATA IS BEING USED TO AUGMENT CLOUD COVER ABOVE
       12000 FEET.
       "FAIR" INDICATES FEW OR NO CLOUDS BELOW 12,000 FEET WITH NO
       SIGNIFICANT WEATHER AND/OR OBSTRUCTIONS TO VISIBILITY.


NEZ001>004-019>022-054>056-160800-
NEBRASKA PANHANDLE

CITY           SKY/WX    TMP DP  RH WIND       PRES   REMARKS
SCOTTSBLUFF    MOCLDY    56  51  84 SE5       29.97F THUNDER
ALLIANCE       TSTM      55  55 100 S3        29.96F FOG
CHADRON        LGT RAIN  53  48  83 NE15      29.98F
GORDON         LGT RAIN  53  51  93 N12       30.01F
KIMBALL        CLOUDY    56  55  98 S9        30.00S
SIDNEY         MOCLDY    56  55  97 S9        29.96F
$$

NEZ057>060-069>072-079>082-160800-
SOUTHWEST NEBRASKA

CITY           SKY/WX    TMP DP  RH WIND       PRES   REMARKS
NORTH PLATTE   LGT RAIN  59  55  87 SE21G31   29.95F
IMPERIAL       CLOUDY    59  56  89 E8        29.95S
LEXINGTON      LGT RAIN  62  59  91 E8        30.00S
MCCOOK         LGT RAIN  61  58  90 E7        29.95F
OGALLALA       CLOUDY    59  58  97 E8        29.96F
$$

NEZ005>010-023>029-035>040-094-160800-
NORTH CENTRAL NEBRASKA

CITY           SKY/WX    TMP DP  RH WIND       PRES   REMARKS
VALENTINE      LGT RAIN  59  52  77 E9        30.00R
AINSWORTH      CLOUDY    56  53  86 E8        29.99S
BROKEN BOW     LGT RAIN  62  58  86 SE22G31   29.96F
O`NEILL        CLOUDY    62  50  64 SE7       30.03R
ORD            CLOUDY    62  53  72 E7        29.99S
$$

NEZ041-046>049-061>064-073>077-083>087-160800-
SOUTH CENTRAL NEBRASKA

CITY           SKY/WX    TMP DP  RH WIND       PRES   REMARKS
GRAND ISLAND   CLOUDY    64  56  75 E8        30.00F
AURORA         CLOUDY    62  56  82 E6        30.00F
HASTINGS       CLOUDY    63  58  83 SE10G17   30.00S
HEBRON         CLOUDY    63  59  87 S10       30.00S
HOLDREGE       CLOUDY    62  59  91 SE7       29.99F
KEARNEY        CLOUDY    62  59  90 NE3       30.01R
YORK           MOCLDY    61  57  88 SE8       30.00F
$$

NEZ011>018-030>034-042>045-160800-
NORTHEAST NEBRASKA

CITY           SKY/WX    TMP DP  RH WIND       PRES   REMARKS
NORFOLK        CLOUDY    65  53  65 S9        30.03R
ALBION         CLOUDY    60  57  87 SE3       30.02F
BLAIR          MOCLDY    62  57  85 S8        30.05S
COLUMBUS       CLOUDY    64  57  78 SE7       30.03S
FREMONT        MOCLDY    64  58  80 SE8       30.04S
TEKAMAH        MOCLDY    61  56  83 SE7       30.04R
WAYNE          MOCLDY    59  52  77 S6        30.04R
$$

NEZ050>053-065>068-078-088>093-160800-
SOUTHEAST NEBRASKA

CITY           SKY/WX    TMP DP  RH WIND       PRES   REMARKS
LINCOLN        MOCLDY    62  56  80 SE8       30.03F
OMAHA EPPLEY   CLOUDY    61  57  87 S6        30.04F
BEATRICE       MOCLDY    61  57  86 E7        30.01F
FALLS CITY     PTCLDY    56  55  97 SE5       30.04F
NEBRASKA CITY  MOCLDY    58  58 100 S8        30.04F
PLATTSMOUTH    MOCLDY    60  57  88 SE7       30.04F
$$

NEZ044-045-051>053-067-160800-
OMAHA AREA

CITY           SKY/WX    TMP DP  RH WIND       PRES   REMARKS
OMAHA EPPLEY   CLOUDY    61  57  87 S6        30.04F
BLAIR          MOCLDY    62  57  85 S8        30.05S
FREMONT        MOCLDY    64  58  80 SE8       30.04S
MILLARD        MOCLDY    63  57  82 SE3       30.04F
OFFUTT AFB     CLOUDY    61  57  88 VRB1      30.05F
PLATTSMOUTH    MOCLDY    60  57  88 SE7       30.04F
WAHOO          MOCLDY    61  58  90 SE6       30.03F
$$



USA.gov is the U.S. government's official web portal to all federal, state and local government web resources and services.